Back to catalog

STARLINK-35223

AliveCommunicationsVLEO
NORAD 65494·PAYLOAD·🇺🇸 United States

Launched Sep 5, 2025 from Cape Canaveral Space Force Station

Loading…

Next Passes (next 24 hours)

TLE

FreshSource: CelesTrak SupGP

Epoch: Sep 14, 2026, 15:15 UTC

1 65494C 25198C   26257.63590278  .00007787  00000+0  23018-3 0  2577
2 65494  53.1571 109.1967 0001401  80.6625  51.9609 15.34369297    18

Track STARLINK-35223 in real time with AllMySat

Download on the App Store